QPF
0.00 0.00 0.00 0.00 0.00 0.00 0.00 0.00 0.00 0.00 0.00 0.00 0.00 0.00 0.00 0.00 0.00 0.00 0.00 0.00 0.00 0.00 0.00 0.00 0.00 0.00 0.00 0.00 0.00 0.00 0.00 0.00 0.00 0.00 0.00 0.00 0.00 0.00 0.00 0.00 0.00 0.00 0.00
0.00 0.00 0.00 0.00 0.00 0.00 0.00 0.00 0.00 0.00 0.00 0.00 0.00 0.00 0.00 0.00 0.00 0.00 0.00 0.00 0.00 0.00 0.00 0.00 0.00 0.00 0.00 0.00 0.00 0.00 0.00 0.00 0.00 0.00 0.00 0.00 0.00 0.00 0.00 0.00 0.00 0.00 0.00
0.00 0.00 0.00 0.00 0.00 0.00 0.00 0.00 0.00 0.00 0.00 0.00 0.00 0.00 0.00 0.00 0.00 0.00 0.00 0.00 0.00 0.00 0.00 0.00 0.00 0.00 0.00 0.00 0.00 0.00 0.00 0.00 0.00 0.00 0.00 0.00 0.00 0.00 0.00 0.00 0.00 0.00 0.00
0.00 0.00 0.00 0.00 0.00 0.00 0.00 0.00 0.00 0.00 0.00 0.00 0.00 0.00 0.00 0.00 0.00 0.00 0.00 0.00 0.00 0.00 0.00 0.00 0.00 0.00 0.00 0.00 0.00 0.00 0.00 0.00 0.00 0.00 0.00 0.00 0.00 0.00 0.00 0.00 0.00 0.00 0.00
0.00 0.00 0.00 0.00 0.00 0.00 0.00 0.00 0.00 0.00 0.00 0.00 0.00 0.00 0.00 0.00 0.00 0.00 0.00 0.00 0.00 0.00 0.00 0.00 0.00 0.00 0.00 0.00 0.00 0.00 0.00 0.00 0.00 0.00 0.00 0.00 0.00 0.00 0.00 0.00 0.00 0.00 0.00
0.00 0.00 0.00 0.00 0.00 0.00 0.00 0.00 0.00 0.00 0.00 0.00 0.00 0.00 0.00 0.00 0.00 0.00 0.00 0.00 0.00 0.00 0.00 0.00 0.00 0.00 0.00 0.00 0.00 0.00 0.00 0.00 0.00 0.00 0.00 0.00 0.00 0.00 0.00 0.00 0.00 0.00 0.00
0.00 0.00 0.00 0.00 0.00 0.00 0.00 0.00 0.00 0.00 0.00 0.00 0.00 0.00 0.00 0.00 0.00 0.00 0.00 0.00 0.00 0.00 0.00 0.00 0.00 0.00 0.00 0.00 0.00 0.00 0.00 0.00 0.00 0.00 0.00 0.00 0.00 0.00 0.00 0.00 0.00 0.00 0.00
0.00 0.00 0.00 0.00 0.00 0.00 0.00 0.00 0.00 0.00 0.00 0.00 0.00 0.00 0.00 0.00 0.00 0.00 0.00 0.00 0.00 0.00 0.00 0.00 0.00 0.00 0.00 0.00 0.00 0.00 0.00 0.00 0.00 0.00 0.00 0.00 0.00 0.00 0.00 0.00 0.00 0.00 0.00
0.00 0.00 0.00 0.00 0.00 0.00 0.00 0.00 0.00 0.00 0.00 0.00 0.00 0.00 0.00 0.00 0.00 0.00 0.00 0.00 0.00 0.00 0.00 0.00 0.00 0.00 0.00 0.00 0.00 0.00 0.00 0.00 0.00 0.00 0.00 0.00 0.00 0.00 0.00 0.00 0.00 0.00 0.00
0.00 0.00 0.00 0.00 0.00 0.00 0.00 0.00 0.00 0.00 0.00 0.00 0.00 0.00 0.00 0.00 0.00 0.00 0.00 0.00 0.00 0.00 0.00 0.00 0.00 0.00 0.00 0.00 0.00 0.00 0.00 0.00 0.00 0.00 0.00 0.00 0.00 0.00 0.00 0.00 0.00 0.00 0.00
0.00 0.00 0.00 0.00 0.00 0.00 0.00 0.00 0.00 0.00 0.00 0.00 0.00 0.00 0.00 0.00 0.00 0.00 0.00 0.00 0.00 0.00 0.00 0.00 0.00 0.00 0.00 0.00 0.00 0.00 0.00 0.00 0.00 0.00 0.00 0.00 0.00 0.00 0.00 0.00 0.00 0.00 0.00
0.00 0.00 0.00 0.00 0.00 0.00 0.00 0.00 0.00 0.00 0.00 0.00 0.00 0.00 0.00 0.00 0.00 0.00 0.00 0.00 0.00 0.00 0.00 0.00 0.00 0.00 0.00 0.00 0.00 0.00 0.00 0.00 0.00 0.00 0.00 0.00 0.00 0.01 0.00 0.00 0.00 0.00 0.00
0.00 0.00 0.00 0.00 0.00 0.00 0.00 0.00 0.00 0.00 0.00 0.00 0.00 0.00 0.00 0.00 0.00 0.00 0.00 0.00 0.00 0.00 0.00 0.00 0.00 0.00 0.00 0.00 0.00 0.00 0.00 0.00 0.00 0.00 0.00 0.00 0.00 0.01 0.01 0.00 0.00 0.00 0.00
0.00 0.00 0.00 0.00 0.00 0.00 0.00 0.00 0.00 0.00 0.00 0.00 0.00 0.00 0.00 0.00 0.00 0.00 0.00 0.00 0.00 0.00 0.00 0.00 0.00 0.00 0.00 0.00 0.00 0.00 0.00 0.00 0.00 0.00 0.00 0.00 0.00 0.00 0.00 0.00 0.00 0.00 0.00
0.00 0.00 0.00 0.00 0.00 0.00 0.00 0.00 0.00 0.00 0.00 0.00 0.00 0.00 0.00 0.00 0.00 0.00 0.00 0.00 0.00 0.00 0.00 0.00 0.00 0.00 0.00 0.00 0.00 0.00 0.00 0.00 0.00 0.00 0.00 0.00 0.00 0.00 0.00 0.00 0.00 0.00 0.00
0.00 0.00 0.00 0.00 0.00 0.00 0.00 0.00 0.00 0.00 0.00 0.00 0.00 0.00 0.00 0.00 0.00 0.00 0.00 0.00 0.00 0.00 0.00 0.00 0.00 0.00 0.00 0.00 0.00 0.00 0.00 0.00 0.00 0.00 0.00 0.00 0.00 0.00 0.00 0.00 0.00 0.00 0.00
0.00 0.00 0.00 0.00 0.00 0.00 0.00 0.00 0.00 0.00 0.00 0.00 0.00 0.00 0.00 0.00 0.00 0.00 0.00 0.00 0.00 0.00 0.00 0.00 0.00 0.00 0.00 0.00 0.00 0.00 0.00 0.00 0.00 0.00 0.00 0.00 0.00 0.00 0.00 0.00 0.00 0.00 0.00
0.00 0.00 0.00 0.00 0.01 0.01 0.00 0.00 0.00 0.00 0.00 0.00 0.00 0.00 0.00 0.00 0.00 0.00 0.00 0.00 0.00 0.00 0.00 0.00 0.00 0.00 0.00 0.00 0.00 0.00 0.00 0.00 0.00 0.00 0.00 0.00 0.00 0.00 0.00 0.00 0.00 0.00 0.00
0.00 0.00 0.00 0.00 0.00 0.01 0.01 0.04 0.02 0.00 0.00 0.00 0.00 0.00 0.00 0.00 0.00 0.00 0.00 0.00 0.00 0.00 0.00 0.00 0.00 0.00 0.00 0.00 0.00 0.00 0.00 0.00 0.00 0.00 0.00 0.00 0.00 0.00 0.00 0.00 0.00 0.00 0.00
0.00 0.00 0.00 0.01 0.02 0.02 0.03 0.02 0.03 0.01 0.00 0.00 0.00 0.01 0.00 0.00 0.00 0.00 0.00 0.00 0.00 0.00 0.01 0.01 0.00 0.00 0.00 0.00 0.00 0.00 0.00 0.00 0.00 0.00 0.00 0.00 0.00 0.00 0.00 0.00 0.00 0.00 0.00
0.00 0.00 0.00 0.01 0.02 0.01 0.00 0.01 0.03 0.05 0.02 0.00 0.00 0.01 0.00 0.00 0.00 0.00 0.01 0.02 0.02 0.04 0.07 0.02 0.00 0.00 0.00 0.01 0.00 0.00 0.00 0.00 0.00 0.00 0.00 0.00 0.00 0.00 0.00 0.00 0.00 0.00 0.00
0.00 0.00 0.00 0.00 0.01 0.01 0.01 0.01 0.02 0.05 0.01 0.00 0.00 0.01 0.03 0.02 0.01 0.02 0.05 0.12 0.11 0.05 0.04 0.03 0.02 0.01 0.01 0.01 0.01 0.00 0.00 0.00 0.00 0.00 0.00 0.00 0.00 0.00 0.00 0.00 0.00 0.00 0.00
0.00 0.00 0.00 0.00 0.02 0.03 0.02 0.01 0.00 0.01 0.00 0.00 0.00 0.00 0.02 0.04 0.04 0.04 0.05 0.03 0.02 0.01 0.01 0.01 0.01 0.00 0.00 0.00 0.01 0.01 0.00 0.00 0.00 0.00 0.00 0.00 0.00 0.00 0.00 0.00 0.00 0.00 0.00
0.00 0.00 0.00 0.00 0.01 0.01 0.02 0.00 0.00 0.00 0.00 0.00 0.00 0.00 0.00 0.00 0.00 0.00 0.00 0.01 0.01 0.00 0.00 0.00 0.00 0.00 0.00 0.00 0.00 0.00 0.00 0.00 0.00 0.00 0.00 0.00 0.00 0.00 0.00 0.00 0.00 0.00 0.00
0.00 0.00 0.00 0.00 0.00 0.02 0.01 0.01 0.01 0.00 0.00 0.00 0.00 0.00 0.00 0.00 0.00 0.00 0.00 0.00 0.00 0.00 0.00 0.00 0.00 0.00 0.00 0.00 0.00 0.00 0.00 0.00 0.00 0.00 0.00 0.00 0.00 0.00 0.00 0.00 0.00 0.00 0.00
0.00 0.00 0.00 0.00 0.00 0.00 0.00 0.00 0.00 0.00 0.01 0.01 0.00 0.00 0.00 0.00 0.00 0.00 0.00 0.00 0.00 0.00 0.00 0.00 0.00 0.00 0.00 0.00 0.00 0.00 0.00 0.00 0.00 0.00 0.00 0.00 0.00 0.00 0.00 0.00 0.00 0.00 0.00
MSLP
1009.94 1010.48 1011.22 1011.69 1011.61 1011.28 1011.24 1011.56 1011.82 1012.21 1012.32 1012.88 1013.13 1013.29 1013.70 1014.16 1014.62 1015.04 1015.46 1015.73 1015.96 1016.11 1016.30 1016.46 1016.58 1016.69 1016.78 1016.90 1017.08 1017.25 1017.38 1017.43 1017.43 1017.53 1017.69 1017.84 1017.92 1017.98 1018.09 1018.11 1018.06 1017.94 1017.84
1009.09 1009.96 1010.70 1011.37 1011.67 1011.66 1011.62 1011.79 1012.00 1012.55 1012.60 1013.12 1013.34 1013.69 1014.09 1014.55 1014.88 1015.21 1015.58 1015.92 1016.11 1016.25 1016.48 1016.63 1016.73 1016.96 1017.16 1017.29 1017.38 1017.42 1017.56 1017.67 1017.69 1017.74 1017.91 1018.01 1018.11 1018.18 1018.27 1018.27 1018.24 1018.10 1018.02
1009.29 1009.88 1010.62 1011.37 1011.85 1011.88 1012.06 1012.23 1012.32 1012.84 1012.94 1013.36 1013.68 1014.03 1014.41 1014.77 1015.11 1015.44 1015.80 1016.16 1016.38 1016.51 1016.64 1016.79 1017.01 1017.33 1017.48 1017.60 1017.64 1017.77 1017.90 1018.01 1018.04 1018.07 1018.12 1018.24 1018.18 1018.16 1018.29 1018.37 1018.44 1018.40 1018.24
1009.62 1010.10 1010.66 1011.20 1011.73 1011.76 1012.07 1012.45 1012.51 1012.89 1013.31 1013.61 1014.04 1014.35 1014.73 1015.08 1015.37 1015.73 1016.07 1016.44 1016.68 1016.79 1016.85 1017.01 1017.30 1017.60 1017.81 1017.87 1017.96 1018.11 1018.16 1018.23 1018.24 1018.30 1018.30 1018.33 1018.29 1018.24 1018.30 1018.35 1018.48 1018.53 1018.53
1009.69 1010.03 1010.75 1011.11 1011.64 1011.88 1012.12 1012.57 1012.82 1013.19 1013.61 1013.93 1014.30 1014.75 1014.99 1015.31 1015.60 1015.96 1016.28 1016.68 1017.01 1017.07 1017.19 1017.35 1017.64 1017.97 1018.14 1018.22 1018.31 1018.36 1018.40 1018.35 1018.38 1018.37 1018.48 1018.61 1018.61 1018.48 1018.41 1018.44 1018.43 1018.45 1018.57
1009.96 1010.13 1010.73 1011.27 1011.78 1012.11 1012.33 1012.65 1013.13 1013.43 1013.90 1014.27 1014.55 1014.88 1015.39 1015.52 1015.85 1016.08 1016.47 1016.86 1017.23 1017.35 1017.47 1017.69 1017.92 1018.14 1018.31 1018.39 1018.42 1018.40 1018.39 1018.39 1018.36 1018.36 1018.44 1018.61 1018.77 1018.64 1018.64 1018.70 1018.74 1018.81 1018.80
1010.17 1010.51 1010.99 1011.39 1011.78 1012.17 1012.45 1012.79 1013.25 1013.52 1014.06 1014.35 1014.69 1014.96 1015.54 1015.57 1016.14 1016.34 1016.68 1017.08 1017.38 1017.71 1017.84 1017.95 1018.12 1018.37 1018.50 1018.60 1018.67 1018.56 1018.45 1018.43 1018.42 1018.41 1018.43 1018.47 1018.50 1018.64 1018.77 1018.95 1019.09 1019.05 1019.02
1010.06 1010.57 1011.11 1011.52 1011.94 1012.25 1012.55 1012.85 1013.28 1013.65 1014.15 1014.25 1014.77 1015.19 1015.55 1015.85 1016.30 1016.57 1016.84 1017.32 1017.62 1017.95 1018.20 1018.24 1018.39 1018.54 1018.57 1018.61 1018.69 1018.73 1018.64 1018.56 1018.46 1018.55 1018.60 1018.62 1018.62 1018.68 1018.76 1018.87 1019.12 1019.31 1019.30
1010.41 1010.68 1011.33 1011.68 1011.98 1012.39 1012.58 1012.79 1013.18 1013.72 1014.14 1014.52 1014.91 1015.26 1015.73 1016.09 1016.46 1016.76 1017.04 1017.52 1017.86 1018.15 1018.30 1018.42 1018.49 1018.61 1018.66 1018.74 1018.84 1018.84 1018.72 1018.64 1018.57 1018.59 1018.68 1018.77 1018.79 1018.94 1019.03 1019.12 1019.25 1019.25 1019.28
1010.88 1011.16 1011.43 1011.90 1012.05 1012.86 1012.87 1013.05 1013.32 1013.90 1014.15 1014.49 1014.91 1015.33 1015.95 1016.18 1016.50 1016.92 1017.25 1017.60 1017.92 1018.23 1018.31 1018.34 1018.51 1018.66 1018.78 1018.89 1018.87 1018.88 1018.71 1018.64 1018.63 1018.58 1018.70 1018.78 1018.85 1018.98 1019.12 1019.27 1019.39 1019.52 1019.52
1011.25 1011.40 1011.49 1011.90 1012.16 1012.90 1012.87 1013.36 1013.60 1014.00 1014.35 1014.83 1015.12 1015.34 1016.11 1016.21 1016.55 1016.84 1017.25 1017.48 1017.75 1018.03 1018.18 1018.25 1018.36 1018.56 1018.75 1018.88 1018.88 1018.87 1018.83 1018.72 1018.73 1018.82 1018.87 1018.94 1018.94 1018.96 1019.08 1019.24 1019.42 1019.54 1019.61
1011.18 1011.24 1011.40 1011.79 1012.35 1012.43 1012.81 1013.27 1013.81 1014.24 1014.47 1014.91 1015.23 1015.59 1015.97 1015.97 1016.40 1016.74 1017.05 1017.34 1017.62 1017.82 1017.95 1018.14 1018.34 1018.51 1018.63 1018.87 1018.97 1018.95 1018.91 1018.78 1018.82 1018.90 1018.95 1018.91 1018.96 1018.90 1018.96 1019.13 1019.35 1019.51 1019.61
1010.75 1010.99 1011.48 1011.90 1011.92 1011.98 1012.61 1013.12 1013.58 1014.07 1014.32 1014.72 1015.11 1015.43 1015.65 1015.79 1016.17 1016.56 1016.98 1017.25 1017.52 1017.71 1018.00 1018.17 1018.36 1018.57 1018.53 1018.70 1018.92 1018.96 1018.79 1018.73 1018.69 1018.75 1018.89 1018.90 1018.82 1018.76 1018.82 1019.02 1019.24 1019.36 1019.45
1010.86 1010.92 1011.48 1011.52 1011.66 1012.04 1012.36 1012.66 1013.12 1013.65 1014.07 1014.52 1014.80 1015.11 1015.26 1015.64 1016.07 1016.39 1016.85 1017.21 1017.54 1017.76 1018.02 1018.30 1018.49 1018.56 1018.66 1018.68 1018.73 1018.68 1018.69 1018.73 1018.78 1018.84 1018.87 1018.82 1018.87 1018.88 1018.81 1018.93 1019.13 1019.26 1019.28
1010.27 1010.38 1010.61 1011.04 1011.46 1011.66 1011.97 1012.25 1012.78 1013.32 1013.82 1014.27 1014.79 1015.09 1015.07 1015.48 1016.15 1016.59 1016.86 1017.24 1017.45 1017.63 1017.84 1018.12 1018.36 1018.50 1018.55 1018.56 1018.59 1018.71 1018.75 1018.68 1018.67 1018.65 1018.69 1018.74 1018.88 1018.90 1018.83 1018.82 1018.96 1019.07 1019.08
1009.55 1009.64 1010.18 1010.63 1010.98 1011.43 1011.72 1012.25 1012.73 1013.12 1013.47 1014.10 1014.67 1014.89 1015.01 1015.49 1016.04 1016.60 1016.94 1017.13 1017.39 1017.53 1017.78 1017.98 1018.18 1018.36 1018.43 1018.46 1018.47 1018.44 1018.46 1018.54 1018.49 1018.43 1018.38 1018.46 1018.57 1018.69 1018.75 1018.77 1018.77 1018.76 1018.77
1008.55 1009.07 1009.52 1010.04 1010.69 1011.29 1011.56 1011.92 1012.37 1012.80 1013.29 1013.98 1014.30 1014.55 1014.84 1015.38 1015.90 1016.27 1016.75 1017.19 1017.17 1017.38 1017.67 1017.85 1017.97 1018.14 1018.28 1018.30 1018.27 1018.06 1018.05 1018.01 1018.03 1018.04 1018.11 1018.16 1018.15 1018.23 1018.34 1018.47 1018.47 1018.51 1018.56
1008.08 1008.41 1008.87 1009.58 1010.08 1010.59 1010.97 1011.38 1012.02 1012.37 1012.87 1013.48 1013.88 1014.23 1014.63 1015.08 1015.45 1015.90 1016.36 1016.65 1016.65 1017.01 1017.34 1017.59 1017.84 1018.03 1018.11 1018.11 1017.93 1017.68 1017.80 1017.81 1017.81 1017.86 1018.00 1017.94 1017.95 1017.94 1018.03 1018.12 1018.22 1018.22 1018.26
1006.93 1007.57 1008.32 1009.02 1009.67 1010.38 1011.13 1012.01 1012.38 1012.14 1012.59 1013.06 1013.61 1014.01 1014.39 1014.79 1015.24 1015.64 1015.85 1015.97 1016.34 1016.63 1016.92 1017.21 1017.44 1017.69 1017.74 1017.70 1017.70 1017.48 1017.36 1017.40 1017.32 1017.49 1017.58 1017.61 1017.72 1017.74 1017.67 1017.62 1017.81 1017.94 1017.94
1006.10 1006.92 1007.78 1008.57 1009.11 1009.79 1010.56 1011.42 1011.80 1012.20 1012.44 1012.52 1012.99 1013.55 1013.98 1014.38 1014.73 1015.14 1015.32 1015.60 1015.90 1016.33 1016.47 1016.58 1016.86 1017.11 1017.28 1017.38 1017.31 1017.11 1017.07 1016.98 1017.01 1017.18 1017.26 1017.23 1017.32 1017.28 1017.41 1017.59 1017.65 1017.75 1017.87
1005.79 1006.52 1006.98 1007.91 1008.61 1009.50 1010.23 1011.01 1011.66 1011.74 1012.08 1012.29 1012.64 1012.99 1013.54 1013.92 1014.27 1014.41 1014.67 1015.14 1015.32 1015.83 1016.28 1016.66 1016.82 1016.97 1017.08 1017.15 1017.38 1017.13 1016.84 1016.64 1016.56 1016.58 1016.47 1016.74 1016.86 1017.01 1017.05 1017.18 1017.38 1017.44 1017.60
1005.03 1005.51 1006.57 1007.26 1007.90 1008.66 1009.49 1010.15 1010.53 1010.96 1011.74 1012.09 1012.26 1012.58 1013.07 1013.50 1013.76 1014.04 1014.52 1015.07 1015.29 1015.78 1016.25 1016.36 1016.64 1016.91 1017.02 1017.03 1017.17 1017.24 1017.18 1016.81 1016.45 1016.21 1016.37 1016.62 1016.75 1016.95 1016.98 1017.06 1017.22 1017.23 1017.14
1004.58 1004.84 1005.50 1006.29 1007.27 1008.02 1009.00 1009.78 1010.41 1011.12 1011.81 1012.33 1012.66 1012.92 1013.22 1013.34 1013.55 1013.72 1014.15 1014.59 1015.18 1015.52 1015.97 1016.20 1016.32 1016.56 1016.71 1016.84 1017.11 1017.34 1017.33 1017.47 1017.34 1016.77 1016.82 1016.58 1016.75 1016.92 1016.82 1016.79 1016.81 1016.94 1017.10
1003.80 1004.56 1005.17 1005.90 1006.81 1007.55 1008.22 1009.18 1009.98 1010.50 1011.43 1011.94 1012.48 1013.11 1013.32 1013.41 1013.47 1013.80 1014.13 1014.40 1015.25 1015.72 1016.11 1016.30 1016.47 1016.56 1016.57 1016.92 1017.14 1017.27 1017.51 1017.75 1017.54 1017.16 1016.76 1016.57 1016.59 1016.71 1016.65 1016.47 1016.45 1016.52 1016.49
1003.86 1004.31 1004.83 1005.48 1006.11 1006.99 1007.74 1008.61 1009.66 1010.76 1011.55 1012.29 1013.06 1013.53 1013.87 1014.07 1014.14 1014.33 1014.51 1015.11 1015.64 1016.04 1016.41 1016.57 1016.75 1016.89 1016.94 1017.20 1017.41 1017.47 1017.59 1017.76 1017.79 1017.82 1017.08 1016.85 1016.72 1016.46 1016.32 1016.21 1016.02 1016.01 1015.99
1004.49 1004.75 1004.93 1005.35 1005.91 1006.31 1007.19 1008.10 1008.98 1010.30 1011.49 1012.60 1013.49 1013.79 1014.36 1014.70 1014.86 1014.99 1015.28 1015.68 1016.11 1016.58 1016.92 1017.14 1017.26 1017.36 1017.52 1017.65 1017.76 1017.91 1018.07 1018.06 1017.99 1017.90 1017.49 1017.28 1017.00 1016.47 1015.99 1015.85 1015.80 1015.46 1015.38
Thickness
5773 5770 5763 5760 5762 5766 5767 5763 5761 5756 5755 5750 5748 5746 5743 5739 5735 5731 5727 5723 5721 5719 5717 5715 5714 5713 5711 5709 5707 5704 5702 5701 5700 5698 5695 5693 5692 5691 5690 5690 5690 5690 5690
5781 5773 5768 5763 5761 5762 5762 5761 5759 5752 5752 5746 5745 5743 5740 5736 5733 5729 5725 5721 5719 5717 5715 5714 5713 5710 5708 5706 5704 5702 5700 5698 5697 5696 5693 5691 5689 5688 5687 5687 5687 5687 5688
5779 5773 5766 5760 5758 5758 5757 5755 5755 5749 5748 5745 5742 5740 5737 5734 5730 5727 5723 5719 5716 5714 5713 5712 5710 5706 5704 5702 5702 5699 5697 5695 5694 5693 5691 5690 5689 5688 5686 5686 5684 5684 5685
5773 5769 5764 5760 5757 5758 5755 5752 5752 5748 5745 5742 5738 5735 5732 5729 5727 5724 5720 5716 5712 5711 5710 5709 5707 5704 5702 5701 5699 5696 5694 5693 5693 5691 5690 5688 5687 5686 5685 5684 5683 5682 5681
5768 5766 5762 5760 5756 5755 5753 5750 5748 5745 5742 5739 5735 5731 5729 5727 5724 5721 5717 5713 5709 5708 5706 5705 5703 5700 5698 5697 5695 5693 5691 5691 5690 5689 5687 5685 5684 5683 5683 5682 5682 5681 5679
5762 5762 5760 5756 5752 5750 5750 5748 5744 5741 5738 5735 5732 5729 5724 5724 5720 5717 5714 5710 5706 5704 5703 5701 5701 5698 5696 5694 5693 5692 5691 5689 5689 5688 5686 5684 5682 5681 5681 5680 5679 5677 5675
5758 5757 5755 5753 5749 5747 5746 5745 5741 5740 5734 5732 5728 5727 5721 5722 5715 5713 5710 5706 5703 5700 5699 5698 5698 5696 5694 5693 5691 5691 5691 5689 5687 5687 5686 5684 5683 5680 5679 5677 5675 5674 5673
5757 5754 5751 5749 5747 5745 5743 5742 5739 5737 5731 5730 5726 5722 5719 5717 5713 5710 5708 5704 5701 5698 5696 5696 5696 5694 5693 5692 5690 5689 5689 5688 5687 5686 5684 5683 5681 5679 5677 5676 5673 5671 5670
5749 5750 5746 5745 5745 5742 5742 5741 5739 5734 5729 5726 5723 5720 5716 5714 5710 5707 5705 5701 5698 5696 5695 5694 5694 5692 5691 5690 5689 5688 5689 5688 5687 5686 5684 5682 5680 5677 5675 5674 5672 5671 5670
5741 5743 5742 5739 5741 5735 5736 5736 5735 5729 5727 5725 5722 5718 5712 5710 5707 5704 5702 5699 5696 5694 5694 5694 5693 5691 5688 5688 5688 5686 5687 5687 5686 5686 5683 5681 5678 5676 5674 5673 5671 5669 5668
5735 5737 5740 5738 5738 5733 5733 5731 5730 5726 5724 5720 5717 5715 5709 5708 5705 5703 5701 5699 5696 5693 5692 5692 5691 5690 5687 5687 5686 5685 5686 5687 5685 5684 5682 5679 5677 5674 5672 5671 5669 5668 5666
5734 5737 5739 5738 5734 5734 5732 5730 5725 5720 5719 5715 5713 5711 5708 5709 5705 5702 5700 5698 5695 5694 5692 5690 5689 5688 5687 5686 5685 5684 5684 5685 5684 5682 5680 5678 5676 5675 5673 5671 5668 5666 5665
5736 5737 5736 5735 5736 5737 5732 5728 5723 5718 5717 5714 5711 5710 5709 5708 5705 5701 5698 5696 5694 5692 5690 5687 5686 5684 5686 5685 5683 5682 5683 5683 5683 5681 5678 5676 5676 5674 5672 5670 5667 5665 5665
5733 5735 5733 5735 5736 5734 5731 5728 5724 5719 5716 5712 5711 5710 5710 5707 5703 5700 5696 5693 5691 5689 5687 5684 5682 5682 5681 5680 5681 5682 5681 5680 5679 5677 5676 5675 5673 5671 5671 5669 5666 5664 5663
5735 5736 5736 5735 5734 5733 5732 5728 5724 5718 5714 5711 5709 5707 5708 5706 5700 5695 5693 5690 5688 5687 5685 5683 5681 5680 5680 5680 5680 5678 5677 5677 5676 5675 5673 5672 5669 5668 5667 5666 5664 5662 5661
5736 5738 5736 5735 5734 5731 5729 5725 5721 5717 5716 5711 5707 5706 5706 5703 5698 5693 5690 5688 5687 5685 5684 5682 5680 5678 5677 5677 5677 5678 5677 5675 5674 5673 5672 5670 5668 5666 5664 5663 5662 5661 5660
5739 5736 5738 5735 5731 5727 5726 5723 5720 5717 5714 5709 5707 5705 5704 5700 5696 5692 5688 5685 5685 5683 5681 5679 5677 5676 5674 5674 5674 5675 5676 5676 5675 5674 5672 5669 5667 5666 5664 5661 5660 5659 5657
5738 5738 5738 5734 5731 5728 5726 5723 5718 5716 5712 5708 5706 5705 5701 5697 5694 5691 5687 5684 5684 5682 5679 5677 5676 5673 5671 5671 5672 5673 5673 5673 5672 5670 5668 5667 5665 5663 5660 5658 5656 5655 5654
5744 5740 5736 5732 5728 5723 5718 5711 5709 5713 5709 5706 5703 5701 5698 5695 5690 5687 5685 5684 5682 5679 5676 5674 5672 5670 5668 5667 5668 5670 5670 5669 5669 5667 5665 5664 5661 5659 5658 5656 5653 5650 5649
5745 5738 5733 5730 5727 5724 5719 5712 5710 5707 5707 5705 5702 5698 5696 5692 5688 5685 5683 5681 5678 5676 5675 5674 5672 5669 5667 5665 5665 5666 5665 5665 5665 5664 5662 5660 5659 5657 5654 5650 5648 5645 5642
5741 5736 5733 5727 5724 5719 5714 5708 5703 5704 5704 5703 5701 5696 5693 5689 5686 5686 5683 5678 5677 5673 5670 5668 5667 5665 5664 5661 5657 5659 5659 5661 5660 5660 5658 5655 5653 5650 5648 5646 5642 5639 5636
5739 5738 5730 5725 5723 5718 5713 5710 5708 5704 5700 5699 5698 5693 5688 5684 5683 5682 5678 5672 5671 5668 5664 5662 5660 5658 5656 5655 5650 5648 5647 5652 5654 5654 5652 5650 5648 5643 5640 5637 5632 5630 5629
5732 5736 5733 5727 5719 5715 5710 5704 5702 5697 5693 5689 5687 5685 5681 5679 5678 5676 5672 5669 5665 5662 5658 5656 5654 5652 5650 5648 5644 5640 5637 5636 5638 5643 5639 5639 5635 5631 5629 5626 5624 5620 5617
5730 5727 5726 5724 5715 5713 5709 5702 5698 5695 5689 5685 5680 5676 5675 5673 5672 5668 5665 5662 5657 5653 5649 5648 5646 5644 5642 5637 5634 5630 5626 5622 5622 5624 5632 5631 5628 5624 5620 5618 5615 5611 5609
5721 5721 5720 5717 5713 5709 5705 5701 5693 5683 5678 5673 5667 5664 5662 5661 5659 5657 5655 5650 5647 5643 5639 5637 5634 5631 5629 5625 5621 5618 5615 5611 5607 5605 5608 5609 5611 5612 5609 5608 5605 5603 5602
5704 5705 5708 5708 5707 5705 5700 5695 5689 5680 5670 5662 5655 5654 5649 5646 5645 5644 5641 5637 5632 5628 5624 5621 5619 5616 5613 5610 5607 5603 5599 5598 5597 5594 5594 5593 5592 5595 5597 5597 5594 5594 5592